When you browse on this site, cookies collect data to enhance your experience and personalize the content and advertising you see.
Visit our Privacy Policy to learn more. By continuing to use the site, you agree to this use of cookies and data.
  • Em Portugal
  • Lista de países
  • Para 7 dias
  • Temperatura da água
  • Mapa do tempo
  • Widgets de tempo
  • user-avatar
    Iniciar Sessão

    Previsão horária em Llucmajor

    Hoje, 22 Agosto, Quinta-feira

    Tempo Temperatura Precipitação Vento Pressão Humidade
    00:00 +21°C° 0 mm 2 m/s 750 mmHg 68%
    01:00 +21°C° 0 mm 2 m/s 750 mmHg 67%
    02:00 +21°C° 0 mm 2 m/s 750 mmHg 66%
    03:00 +20°C° 0 mm 3 m/s 749 mmHg 66%
    04:00 +21°C° 0 mm 3 m/s 750 mmHg 65%
    05:00 +21°C° 0 mm 3 m/s 750 mmHg 64%
    06:00 +22°C° 0 mm 3 m/s 750 mmHg 64%
    07:00 +25°C° 0 mm 4 m/s 750 mmHg 57%
    08:00 +27°C° 0 mm 4 m/s 751 mmHg 49%
    09:00 +29°C° 0 mm 4 m/s 751 mmHg 42%
    10:00 +30°C° 0 mm 4 m/s 751 mmHg 41%
    11:00 +30°C° 0 mm 5 m/s 751 mmHg 40%
    12:00 +32°C° 0 mm 5 m/s 751 mmHg 38%
    13:00 +32°C° 0 mm 5 m/s 751 mmHg 38%
    14:00 +30°C° 0 mm 5 m/s 751 mmHg 37%
    15:00 +30°C° 0 mm 5 m/s 751 mmHg 37%
    16:00 +29°C° 0 mm 4 m/s 750 mmHg 39%
    17:00 +28°C° 0 mm 4 m/s 750 mmHg 41%
    18:00 +27°C° 0 mm 3 m/s 750 mmHg 44%
    19:00 +26°C° 0 mm 3 m/s 750 mmHg 50%
    20:00 +24°C° 0 mm 3 m/s 750 mmHg 55%
    21:00 +22°C° 0 mm 3 m/s 751 mmHg 61%
    22:00 +23°C° 0 mm 2 m/s 750 mmHg 61%
    23:00 +21°C° 0 mm 2 m/s 750 mmHg 61%

    Amanhã, 23 Agosto, Sexta-feira

    Tempo Temperatura Precipitação Vento Pressão Humidade
    00:00 +21°C° 0 mm 2 m/s 750 mmHg 61%
    01:00 +21°C° 0 mm 2 m/s 750 mmHg 62%
    02:00 +21°C° 0 mm 2 m/s 750 mmHg 64%
    03:00 +21°C° 0 mm 2 m/s 750 mmHg 65%
    04:00 +21°C° 0 mm 2 m/s 750 mmHg 65%
    05:00 +21°C° 0 mm 3 m/s 750 mmHg 64%
    06:00 +22°C° 0 mm 3 m/s 750 mmHg 63%
    07:00 +25°C° 0 mm 3 m/s 750 mmHg 57%
    08:00 +27°C° 0 mm 3 m/s 751 mmHg 51%
    09:00 +29°C° 0 mm 3 m/s 751 mmHg 45%
    10:00 +30°C° 0 mm 3 m/s 751 mmHg 46%
    11:00 +30°C° 0 mm 3 m/s 751 mmHg 46%
    12:00 +32°C° 0 mm 4 m/s 750 mmHg 47%
    13:00 +30°C° 0 mm 3 m/s 750 mmHg 48%
    14:00 +30°C° 0 mm 3 m/s 750 mmHg 49%
    15:00 +30°C° 0 mm 3 m/s 750 mmHg 50%
    16:00 +29°C° 0 mm 3 m/s 750 mmHg 55%
    17:00 +28°C° 0 mm 2 m/s 749 mmHg 60%
    18:00 +27°C° 0 mm 2 m/s 749 mmHg 65%
    19:00 +26°C° 0 mm 2 m/s 749 mmHg 71%
    20:00 +25°C° 0 mm 1 m/s 749 mmHg 77%
    21:00 +23°C° 0 mm 1 m/s 749 mmHg 83%
    22:00 +23°C° 0 mm 1 m/s 749 mmHg 83%
    23:00 +23°C° 0 mm 1 m/s 749 mmHg 83%

    Depois de amanhã, 24 Agosto, Sábado

    Tempo Temperatura Precipitação Vento Pressão Humidade
    00:00 +23°C° 0 mm 1 m/s 749 mmHg 83%
    01:00 +23°C° 0 mm 1 m/s 749 mmHg 83%
    02:00 +22°C° 0 mm 1 m/s 749 mmHg 83%
    03:00 +22°C° 0 mm 1 m/s 749 mmHg 82%
    04:00 +23°C° 0 mm 1 m/s 749 mmHg 80%
    05:00 +23°C° 0 mm 1 m/s 749 mmHg 78%
    06:00 +23°C° 0 mm 1 m/s 749 mmHg 76%
    07:00 +25°C° 0 mm 1 m/s 749 mmHg 68%
    08:00 +27°C° 0 mm 1 m/s 750 mmHg 59%
    09:00 +29°C° 0 mm 1 m/s 750 mmHg 51%
    10:00 +30°C° 0 mm 2 m/s 750 mmHg 50%
    11:00 +30°C° 0 mm 2 m/s 750 mmHg 49%
    12:00 +31°C° 0 mm 3 m/s 750 mmHg 48%
    13:00 +31°C° 0 mm 3 m/s 750 mmHg 50%
    14:00 +30°C° 0 mm 3 m/s 750 mmHg 51%
    15:00 +30°C° 0 mm 3 m/s 749 mmHg 52%
    16:00 +29°C° 0 mm 2 m/s 749 mmHg 55%
    17:00 +28°C° 0 mm 2 m/s 749 mmHg 59%
    18:00 +27°C° 0 mm 2 m/s 749 mmHg 62%
    19:00 +26°C° 0 mm 1 m/s 749 mmHg 67%
    20:00 +25°C° 0 mm 1 m/s 749 mmHg 73%
    21:00 +24°C° 0 mm 1 m/s 749 mmHg 79%
    22:00 +24°C° 0 mm 1 m/s 749 mmHg 80%
    23:00 +23°C° 0 mm 1 m/s 749 mmHg 81%

    25 Agosto, Domingo

    Tempo Temperatura Precipitação Vento Pressão Humidade
    00:00 +23°C° 0 mm 1 m/s 748 mmHg 82%
    01:00 +23°C° 0 mm 1 m/s 748 mmHg 83%
    02:00 +23°C° 0 mm 1 m/s 748 mmHg 83%
    03:00 +22°C° 0 mm 1 m/s 748 mmHg 84%
    04:00 +23°C° 0 mm 1 m/s 748 mmHg 81%
    05:00 +23°C° 0 mm 1 m/s 748 mmHg 79%
    06:00 +23°C° 0 mm 1 m/s 748 mmHg 76%
    07:00 +25°C° 0 mm 1 m/s 748 mmHg 67%
    08:00 +27°C° 0 mm 1 m/s 749 mmHg 58%
    09:00 +29°C° 0 mm 1 m/s 749 mmHg 49%
    10:00 +30°C° 0 mm 2 m/s 749 mmHg 49%
    11:00 +30°C° 0 mm 3 m/s 749 mmHg 48%
    12:00 +31°C° 0 mm 3 m/s 749 mmHg 48%
    13:00 +31°C° 0 mm 3 m/s 749 mmHg 49%
    14:00 +30°C° 0 mm 3 m/s 749 mmHg 50%
    15:00 +30°C° 0 mm 3 m/s 748 mmHg 51%
    16:00 +29°C° 0 mm 2 m/s 748 mmHg 55%
    17:00 +28°C° 0 mm 2 m/s 748 mmHg 59%
    18:00 +27°C° 0 mm 1 m/s 748 mmHg 63%
    19:00 +26°C° 0 mm 1 m/s 748 mmHg 68%
    20:00 +25°C° 0 mm 1 m/s 748 mmHg 73%
    21:00 +24°C° 0 mm 1 m/s 748 mmHg 79%
    22:00 +24°C° 0 mm 1 m/s 748 mmHg 80%
    23:00 +23°C° 0 mm 1 m/s 748 mmHg 82%

    26 Agosto, Segunda-feira

    Tempo Temperatura Precipitação Vento Pressão Humidade
    00:00 +23°C° 0 mm 2 m/s 748 mmHg 83%
    01:00 +23°C° 0 mm 2 m/s 748 mmHg 83%
    02:00 +23°C° 0 mm 2 m/s 747 mmHg 83%
    03:00 +23°C° 0 mm 2 m/s 747 mmHg 83%
    04:00 +22°C° 0 mm 3 m/s 747 mmHg 82%
    05:00 +22°C° 0 mm 3 m/s 748 mmHg 81%
    06:00 +22°C° 0 mm 3 m/s 748 mmHg 80%
    07:00 +25°C° 0 mm 3 m/s 748 mmHg 71%
    08:00 +27°C° 0 mm 4 m/s 749 mmHg 63%
    09:00 +29°C° 0 mm 4 m/s 749 mmHg 54%
    10:00 +30°C° 0 mm 4 m/s 749 mmHg 52%
    11:00 +32°C° 0 mm 5 m/s 749 mmHg 49%
    12:00 +32°C° 0 mm 5 m/s 749 mmHg 47%
    13:00 +32°C° 0 mm 6 m/s 749 mmHg 49%
    14:00 +32°C° 0 mm 6 m/s 748 mmHg 51%
    15:00 +30°C° 0 mm 6 m/s 748 mmHg 53%
    16:00 +29°C° 0 mm 6 m/s 748 mmHg 56%
    17:00 +29°C° 0 mm 7 m/s 747 mmHg 59%
    18:00 +28°C° 0 mm 7 m/s 747 mmHg 62%
    19:00 +27°C° 0 mm 6 m/s 747 mmHg 68%
    20:00 +26°C° 0 mm 5 m/s 747 mmHg 73%
    21:00 +25°C° 0 mm 4 m/s 747 mmHg 79%
    22:00 +25°C° 0 mm 4 m/s 747 mmHg 81%
    23:00 +25°C° 0 mm 3 m/s 747 mmHg 82%

    27 Agosto, Terça-feira

    Tempo Temperatura Precipitação Vento Pressão Humidade
    00:00 +25°C° 0 mm 3 m/s 747 mmHg 83%
    01:00 +25°C° 0.2 mm 3 m/s 747 mmHg 83%
    02:00 +25°C° 0.2 mm 4 m/s 747 mmHg 84%
    03:00 +25°C° 0.2 mm 4 m/s 746 mmHg 84%
    04:00 +25°C° 0.1 mm 4 m/s 746 mmHg 83%
    05:00 +25°C° 0.1 mm 3 m/s 746 mmHg 82%
    06:00 +25°C° 0.1 mm 3 m/s 747 mmHg 81%
    07:00 +27°C° 0 mm 4 m/s 746 mmHg 74%
    08:00 +28°C° 0 mm 5 m/s 746 mmHg 67%
    09:00 +29°C° 0 mm 7 m/s 746 mmHg 60%
    10:00 +28°C° 2.3 mm 7 m/s 746 mmHg 68%
    11:00 +27°C° 2.3 mm 7 m/s 746 mmHg 75%
    12:00 +26°C° 2.3 mm 7 m/s 746 mmHg 82%
    13:00 +26°C° 1.5 mm 6 m/s 745 mmHg 76%
    14:00 +27°C° 1.5 mm 6 m/s 745 mmHg 70%
    15:00 +27°C° 1.5 mm 5 m/s 745 mmHg 64%
    16:00 +27°C° 0 mm 4 m/s 744 mmHg 66%
    17:00 +27°C° 0 mm 4 m/s 744 mmHg 68%
    18:00 +27°C° 0 mm 3 m/s 744 mmHg 70%
    19:00 +26°C° 0 mm 3 m/s 744 mmHg 72%
    20:00 +25°C° 0 mm 3 m/s 744 mmHg 75%
    21:00 +25°C° 0 mm 3 m/s 744 mmHg 77%
    22:00 +25°C° 0 mm 3 m/s 744 mmHg 78%
    23:00 +25°C° 0 mm 3 m/s 744 mmHg 79%
    Mostrar mais